This is the latest recevied weather packets stored in our database for station/object W1REE. If no packets are shown the sender has not sent any weather packets the latest 10 day(s).
| Time | Temp. | Humidity | Pressure | Rain* | Wind** | Luminosity | Snow |
|---|---|---|---|---|---|---|---|
| 1777391361 | 5° C | 74% | 1018.8 hPa | 0 mm | - | 572 W/m² | - |
| 1777391058 | 4.44° C | 74% | 1018.7 hPa | 0 mm | - | 330 W/m² | - |
| 1777390754 | 4.44° C | 76% | 1019 hPa | 0 mm | - | 226 W/m² | - |
| 1777390451 | 4.44° C | 75% | 1018.9 hPa | 0 mm | - | 191 W/m² | - |
| 1777390147 | 4.44° C | 75% | 1018.8 hPa | 0 mm | - | 198 W/m² | - |
| 1777389843 | 4.44° C | 75% | 1018.9 hPa | 0 mm | - | 189 W/m² | - |
| 1777389541 | 4.44° C | 76% | 1018.8 hPa | 0 mm | - | 166 W/m² | - |
| 1777389237 | 4.44° C | 77% | 1018.7 hPa | 0 mm | - | 289 W/m² | - |
| 1777388935 | 4.44° C | 75% | 1018.7 hPa | 0 mm | - | 184 W/m² | - |
| 1777388631 | 3.89° C | 78% | 1018.8 hPa | 0 mm | - | 196 W/m² | - |
| 1777388328 | 4.44° C | 76% | 1018.6 hPa | 0 mm | - | 119 W/m² | - |
| 1777388028 | 4.44° C | 77% | 1018.3 hPa | 0 mm | - | 121 W/m² | - |
| 1777387724 | 3.89° C | 78% | 1018.3 hPa | 0 mm | - | 147 W/m² | - |
| 1777387421 | 3.89° C | 77% | 1018 hPa | 0 mm | - | 165 W/m² | - |
| 1777387121 | 3.89° C | 78% | 1018.2 hPa | 0 mm | - | 166 W/m² | - |
| 1777386817 | 3.89° C | 79% | 1018.1 hPa | 0 mm | - | 150 W/m² | - |
| 1777386514 | 3.89° C | 78% | 1018.2 hPa | 0 mm | - | 150 W/m² | - |
| 1777386211 | 3.89° C | 79% | 1018.2 hPa | 0 mm | - | 185 W/m² | - |
| 1777385909 | 3.33° C | 78% | 1018 hPa | 0 mm | - | 168 W/m² | - |
| 1777385604 | 3.33° C | 80% | 1018 hPa | 0 mm | - | 145 W/m² | - |
| 1777385302 | 3.33° C | 81% | 1018.1 hPa | 0 mm | - | 127 W/m² | - |
| 1777384998 | 3.33° C | 81% | 1018 hPa | 0 mm | - | 137 W/m² | - |
| 1777384696 | 3.33° C | 80% | 1018 hPa | 0 mm | - | 87 W/m² | - |
| 1777384395 | 3.33° C | 81% | 1017.8 hPa | 0 mm | - | 75 W/m² | - |
| 1777384091 | 3.33° C | 82% | 1017.7 hPa | 0 mm | - | 78 W/m² | - |
* Rain latest hour (hover to see other rain measurements)
** Current wind speed in m/s (hover to see current wind gust speed)